Weather History for Caslav, Czech Republic

Change the Weather History Date:

Saturday, April 27, 2013

  Actual Average Record
Temperature  
Mean Temperature 60 °F -  
Max Temperature 68 °F - - ()
Min Temperature 53 °F - - ()
Degree Days  
Heating Degree Days 4    
Growing Degree Days 10 (Base 50)    
Moisture  
Dew Point 53 °F    
Average Humidity 76    
Maximum Humidity 94    
Minimum Humidity 52    
Precipitation  
Precipitation 0.00 in - - ()
Sea Level Pressure  
Sea Level Pressure 29.61 in    
Wind  
Wind Speed 5 mph ()    
Max Wind Speed 12 mph    
Max Gust Speed -    
Visibility 6.2 miles    
Events Rain , Thunderstorm    
T = Trace of Precipitation, MM = Missing Value Source: Averaged Metar Reports

Daily Weather History Graph

Daily Weather History Graph

Search for Another Location

Airport:

Trip Planner

Search our weather history database for the weather conditions in past years. The results will help you decide how hot, cold, wet, or windy it might be!

Date:

Astronomy

Apr. 27, 2013 Rise Set
Actual Time 5:42 AM CEST 8:10 PM CEST
Civil Twilight 5:06 AM CEST 8:46 PM CEST
Nautical Twilight 4:21 AM CEST 9:32 PM CEST
Astronomical Twilight 3:28 AM CEST 10:26 PM CEST
Moon 10:31 PM CEST (4/27) 6:36 AM CEST (4/27)
Length of Visible Light 15h 40m
Length of Day
14h 28m
Waning Gibbous, 96% of the Moon is Illuminated
Apr 27
Waning Gibbous
May 2
Last Quarter
May 10
New
May 18
First Quarter
May 25
Full

Hourly Weather History & Observations

Time (CEST) Temp. Dew Point Humidity Pressure Visibility Wind Dir Wind Speed Gust Speed Precip Events Conditions
12:00 AM 68.0 °F 50.0 °F 52% 29.59 in - Variable 1.2 mph - N/A   Clear
1:00 AM 68.0 °F 50.0 °F 52% 29.56 in - SSE 6.9 mph - N/A   Clear
2:00 AM 64.4 °F 51.8 °F 64% 29.59 in 6.2 mi SW 6.9 mph - N/A Rain Light Rain Showers
3:00 AM 60.8 °F 53.6 °F 77% 29.59 in - NW 11.5 mph - N/A   Clear
4:00 AM 57.2 °F 51.8 °F 82% 29.59 in - SSW 4.6 mph - N/A   Clear
5:00 AM 55.4 °F 51.8 °F 88% 29.59 in - SW 5.8 mph - N/A   Clear
6:00 AM 53.6 °F 51.8 °F 94% 29.59 in - West 4.6 mph - N/A   Clear
7:00 AM 55.4 °F 53.6 °F 94% 29.62 in - Calm Calm - N/A   Clear
8:00 AM 57.2 °F 53.6 °F 88% 29.62 in - ESE 4.6 mph - N/A   Clear
9:00 AM 60.8 °F 53.6 °F 77% 29.62 in - Variable 2.3 mph - N/A   Clear
10:00 AM 62.6 °F 53.6 °F 72% 29.62 in 6.2 mi Calm Calm - N/A   Mostly Cloudy
11:00 AM 64.4 °F 55.4 °F 73% 29.62 in 6.2 mi Variable 2.3 mph - N/A   Mostly Cloudy
12:00 PM 66.2 °F 53.6 °F 64% 29.62 in 6.2 mi Variable 1.2 mph - N/A   Mostly Cloudy
1:00 PM 66.2 °F 55.4 °F 68% 29.62 in 6.2 mi NW 4.6 mph - N/A   Mostly Cloudy
2:00 PM 68.0 °F 55.4 °F 64% 29.62 in 6.2 mi North 4.6 mph - N/A   Mostly Cloudy
3:00 PM 68.0 °F 53.6 °F 60% 29.62 in 6.2 mi NE 5.8 mph - N/A   Mostly Cloudy
4:00 PM 68.0 °F 55.4 °F 64% 29.59 in 6.2 mi NNE 5.8 mph - N/A   Mostly Cloudy
5:00 PM 68.0 °F 53.6 °F 60% 29.59 in 6.2 mi NNE 5.8 mph - N/A   Overcast
6:00 PM 66.2 °F 53.6 °F 64% 29.59 in - NNE 9.2 mph - N/A   Clear
7:00 PM 62.6 °F 55.4 °F 77% 29.59 in - NE 9.2 mph - N/A   Clear
8:00 PM 59.0 °F 53.6 °F 82% 29.62 in - North 6.9 mph - N/A   Clear
9:00 PM 57.2 °F 53.6 °F 88% 29.65 in 6.2 mi North 6.9 mph - N/A   Mostly Cloudy
9:05 PM 57.2 °F 51.8 °F 82% 29.62 in 6.2 mi North 6.9 mph - N/A Thunderstorm Mostly Cloudy
9:15 PM 57.2 °F 51.8 °F 82% 29.65 in 6.2 mi North 6.9 mph - N/A Thunderstorm Thunderstorm
10:00 PM 53.6 °F 50.0 °F 88% 29.65 in 6.2 mi NW 11.5 mph - N/A Thunderstorm Thunderstorm
11:00 PM 55.4 °F 51.8 °F 88% 29.62 in 6.2 mi ENE 9.2 mph - N/A Thunderstorm Thunderstorm
11:08 PM 53.6 °F 50.0 °F 88% 29.62 in 6.2 mi NE 8.1 mph - N/A Thunderstorm Mostly Cloudy
11:21 PM 53.6 °F 50.0 °F 88% 29.65 in 6.2 mi ENE 6.9 mph - N/A   Mostly Cloudy